Location: Central Falls
(41.8900°N, 71.3929°W)
Time: 02:19:44
(UTC+00:00)

Vanguard 2 Rocket - Pass Details

Date: 05 December 2023
Orbit: 555 x 3309 km, 32.9° (Epoch: 01 March)

Event Time Altitude Azimuth Distance (km) Brightness Sun altitude
Rises 21:48:58 0° 264° (W) 6,889 13.1 -6.5°
Reaches altitude 10° 21:53:21 10° 261° (W) 6,058 12.6 -7.3°
Maximum altitude 22:13:01 64° 187° (S) 3,457 9.9 -10.7°
Drops below altitude 10° 22:29:39 10° 111° (ESE) 5,230 10.3 -13.6°
Enters shadow 22:32:05 - 109° (ESE) 5,727 10.5 -14.0°
Sets 22:33:06 0° 109° (ESE) 5,943 - -14.2°
